Regional Weather Roundup
Issued by NWS

Home | Current Version | Previous Version | Text Only | Print | Product List | Glossary Off
Versions: 1 2 3 4 5 6 7 8 9 10 11 12 13 14 15 16 17 18 19 20 21 22 23 24 25 26 27 28 29 30 31 32 33 34 35 36 37 38 39 40 41 42 43 44 45 46 47 48 49 50

000
ASUS45 KTFX 291204
RWRMT
MONTANA HOURLY WEATHER ROUNDUP
NATIONAL WEATHER SERVICE GREAT FALLS MT
504 AM MST MON DEC 29 2014

NOTE: "FAIR" INDICATES FEW OR NO CLOUDS BELOW 12000 FEET WITH NO
SIGNIFICANT WEATHER AND/OR OBSTRUCTIONS TO VISIBILITY.

* THESE STATIONS ARE NOT UNDER NWS QUALITY CONTROL. THEY DO NOT
   REPORT WEATHER SUCH AS PRECIPITATION OR FOG.

MTZ001>007-043-291300-
WEST OF THE DIVIDE
CITY           SKY/WX    TMP DP  RH WIND       PRES   REMARKS
KALISPELL      MOCLDY    14   3  61 NE16G31   30.43R WCI  -2
MISSOULA       CLOUDY    14   3  61 E17       30.37R WCI  -2
BUTTE          LGT SNOW   3  -2  79 W5        30.21R WCI  -7
MULLAN PASS    LGT SNOW   7   1  76 VRB3      30.06R VSB 1 1/4
* ESSEX        N/A        8  -5  55 E2G8       N/A
* LINCOLN      N/A        3  -7  63 NE15G29    N/A   WCI -16
* LOOKOUT PASS N/A       11   6  80 W4         N/A
* POLSON       N/A       12   5  73 NE4        N/A
* RONAN APT    PTCLDY    18   1  47 E15G21     N/A   WCI   4
* SEELEY LAKE  N/A        5   1  83 N/A        N/A
* THOMP F APT  PTCLDY     6   0  76 NW7G16     N/A   WCI  -6
* YAAK HILL    N/A       18   6  59 S2G8       N/A
$$

MTZ008-052>055-291300-
SOUTHWEST MONTANA
CITY           SKY/WX    TMP DP  RH WIND       PRES   REMARKS
BOZEMAN        FOG        9   3  76 W8        30.28R WCI  -3
DILLON         LGT SNOW   7   3  83 NE13      30.18R WCI  -9
* W YELLOWSTON CLEAR      1  -4  79 N/A        N/A
* THREE FORKS  PTCLDY    10   7  88 N7         N/A   WCI  -1
* BOULDER HILL N/A        0  -6  75 N19G24     N/A   WCI -22
* MONIDA PASS  N/A        1  -3  83 W4         N/A
* RAYNOLDS PAS N/A        1 -41  11 N12        N/A   WCI -16
* WHITEHALL    N/A        8  -1  66 NE10G17    N/A   WCI  -6
* WISE RIVER   N/A        7  -3  63 E12G20     N/A   WCI  -9
$$

MTZ009>010-012-014-046-048-049-054-291300-
EAST SLOPES AND CENTRAL MONTANA
CITY           SKY/WX    TMP DP  RH WIND       PRES   REMARKS
CUT BANK       LGT SNOW   1  -2  87 N15       30.55R VSB 3    WCI -18
GREAT FALLS    LGT SNOW   1  -2  87 N8        30.51R VSB 2    WCI -13
HELENA         HAZE       7  -2  66 NW10      30.44R WCI  -7
MALMSTROM AFB  LGT SNOW   3   1  91 N9        30.55R WCI -11
* DEARBORN     N/A        5  -1  76 N7         N/A   WCI  -7
* EAST GLACIER N/A       -1  -6  79 E12        N/A   WCI -19
* MONARCH      N/A       -3  -8  79 NW4        N/A
* PENDROY      N/A        0  -2  91 VRB19G26    N/A   WCI -22
* SWEET GRASS  N/A        0  -3  87 N/A        N/A
$$

MTZ011-013-016-021-035-040-045-047-050-051-291300-
NORTH CENTRAL MONTANA
CITY           SKY/WX    TMP DP  RH WIND       PRES   REMARKS
HAVRE          CLOUDY     7  -2  66 NE10      30.63R WCI  -7
LEWISTOWN      LGT SNOW   3   0  87 W8        30.42R WCI -10
* N BAR RANCH  CLOUDY     3  -2  79 N7        30.40R WCI  -9
* CHESTER      N/A        6  -2  69 N9G15      N/A   WCI  -8
* DENTON       N/A        5   2  87 NW9        N/A   WCI  -9
* JUDITH GAP   N/A        1  -1  91 N17G22     N/A   WCI -19
* LOMA         N/A        7   2  80 N8G14      N/A   WCI  -6
$$

MTZ017>020-022>027-061-062-291300-
NORTHEAST MONTANA
CITY           SKY/WX    TMP DP  RH WIND       PRES   REMARKS
GLASGOW        PTCLDY    -2  -8  75 NW9       30.63R WCI -18
GLENDIVE       CLOUDY     0  -6  75 N10       30.55R WCI -16
JORDAN         PTCLDY     5   0  80 N7        30.56R WCI  -7
SIDNEY         CLEAR     -9 -20  58 NW10      30.64R WCI -27
WOLF POINT     CLEAR     -6 -11  78 CALM      30.67R
* BEAVER HILL  N/A       -6 -10  82 N8         N/A   WCI -21
* CIRCLE       N/A       -2  -6  83 NE5        N/A   WCI -13
* LINDSAY DVD  N/A       -5  -9  82 NW14       N/A   WCI -25
* NAVAJO       N/A      -14 -19  78 NW9        N/A   WCI -32
* SACO         N/A       -5 -10  79 NW4        N/A
$$

MTZ028>042-056>058-291300-
SOUTHCENTRAL AND SOUTHEAST MONTANA
CITY           SKY/WX    TMP DP  RH WIND       PRES   REMARKS
BAKER          CLOUDY     3  -2  79 N7        30.46R WCI  -9
BILLINGS       LGT SNOW   7   1  76 NE16      30.43R WCI -11
LIVINGSTON     LGT SNOW   9   3  76 E23       30.28R WCI -11
MILES CITY     CLOUDY     3  -2  79 N13       30.51R WCI -14
* LAUREL APT   PTCLDY     9  -2  61 N7         N/A   WCI  -2
* ROUNDUP APT  PTCLDY     5  -2  72 N6         N/A   WCI  -6
* ALZADA       N/A        5   1  83 N6         N/A   WCI  -6
* HYSHAM       N/A        2  -3  79 NE6G12     N/A   WCI  -9
* REED POINT   N/A        9   5  84 NE4G9      N/A
* ROSCOE HILL  N/A        5   0  80 N2         N/A
$$

REGIONAL REPORTS...DAKOTAS
CITY           SKY/WX    TMP DP  RH WIND       PRES   REMARKS
WILLISTON      PTCLDY    -9 -17  67 N8        30.63R WCI -25
DICKINSON      CLOUDY    -4  -9  79 N7        30.48R WCI -18
CROSBY         CLEAR    -13 -18  78 NW12      30.64R WCI -34
WATFORD CITY   CLEAR    -13 -18  78 W5        30.58R WCI -26
BISMARCK       PTCLDY    -8 -13  78 N8        30.60R WCI -24
GRAND FORKS    PTCLDY   -13 -18  78 N8        30.65R WCI -30
FARGO          CLEAR     -8 -13  78 N13       30.61R WCI -28
BUFFALO SD     PTCLDY     1  -2  87 NE16      30.34R WCI -19
RAPID CITY     LGT SNOW   5   1  83 N9        30.34R WCI  -9
$$

REGIONAL REPORTS...WYOMING/IDAHO/WASHINGTON
CITY           SKY/WX    TMP DP  RH WIND       PRES   REMARKS
GILLETTE       LGT SNOW   7   3  83 N16       30.24R VSB 3    WCI -11
SHERIDAN       LGT SNOW   9   3  76 NW16      30.35R VSB 1 1/2 WCI  -8
CODY           CLOUDY     9   7  91 N9        30.22R WCI  -4
YELLOWSTONE LA MOCLDY     0  -6  75 CALM      29.98R
SALMON         CLOUDY    19   7  59 NE5       30.13R WCI  12
MULLAN PASS    LGT SNOW   7   1  76 VRB3      30.06S VSB 1 1/4
SAND POINT     CLOUDY    21  12  68 N22G33    30.38R WCI   5
SPOKANE        LGT SNOW  23  16  74 NE22      30.24R WCI   8

$$




USA.gov is the U.S. government's official web portal to all federal, state and local government web resources and services.